Time,TemperatureF,DewpointF,PressureIn,WindDirection,WindDirectionDegrees,WindSpeedMPH,WindSpeedGustMPH,Humidity,HourlyPrecipIn,Conditions,Clouds,dailyrainin,SoftwareType,DateUTC
2013-07-01 00:01:00,64.7,49.1,30.07,ENE,78,2.4,3.5,57,0.00,CLR,,0.00,WeatherDisplay:10.37,2013-07-01 05:01:00,
2013-07-01 00:06:00,64.6,49.5,30.07,NE,54,0.0,0.0,58,0.00,CLR,,0.00,WeatherDisplay:10.37,2013-07-01 05:06:00,
2013-07-01 00:11:00,64.1,49.5,30.07,NE,54,0.0,0.0,59,0.00,CLR,,0.00,WeatherDisplay:10.37,2013-07-01 05:11:00,
2013-07-01 00:16:00,63.6,49.5,30.06,NE,54,0.0,0.0,60,0.00,CLR,,0.00,WeatherDisplay:10.37,2013-07-01 05:16:00,
2013-07-01 00:21:00,63.1,49.4,30.07,NE,54,0.0,0.0,61,0.00,CLR,,0.00,WeatherDisplay:10.37,2013-07-01 05:21:00,
2013-07-01 00:26:00,62.6,49.8,30.06,NE,54,0.0,0.0,63,0.00,CLR,,0.00,WeatherDisplay:10.37,2013-07-01 05:26:00,
2013-07-01 00:31:00,62.0,49.7,30.06,NE,54,0.0,0.0,64,0.00,CLR,,0.00,WeatherDisplay:10.37,2013-07-01 05:31:00,
2013-07-01 00:36:00,61.5,49.6,30.06,NE,54,0.0,0.0,65,0.00,CLR,,0.00,WeatherDisplay:10.37,2013-07-01 05:36:00,
2013-07-01 00:41:00,60.9,49.5,30.06,NE,54,0.0,0.0,66,0.00,CLR,,0.00,WeatherDisplay:10.37,2013-07-01 05:41:00,
2013-07-01 00:46:00,60.5,49.9,30.06,NE,54,0.0,0.0,68,0.00,CLR,,0.00,WeatherDisplay:10.37,2013-07-01 05:46:00,
2013-07-01 00:51:00,59.9,49.7,30.06,NE,54,0.0,0.0,69,0.00,CLR,,0.00,WeatherDisplay:10.37,2013-07-01 05:51:00,
2013-07-01 00:56:00,59.8,49.6,30.06,NE,54,0.0,0.0,69,0.00,CLR,,0.00,WeatherDisplay:10.37,2013-07-01 05:56:00,
2013-07-01 01:01:00,59.7,49.5,30.07,NE,54,0.0,0.0,69,0.00,CLR,,0.00,WeatherDisplay:10.37,2013-07-01 06:01:00,
2013-07-01 01:06:00,59.7,49.9,30.06,NE,54,0.0,0.0,70,0.00,CLR,,0.00,WeatherDisplay:10.37,2013-07-01 06:06:00,
2013-07-01 01:11:00,59.5,50.5,30.07,NE,54,0.0,0.0,72,0.00,CLR,,0.00,WeatherDisplay:10.37,2013-07-01 06:11:00,
2013-07-01 01:16:00,59.3,50.6,30.07,NE,54,0.0,0.0,73,0.00,CLR,,0.00,WeatherDisplay:10.37,2013-07-01 06:16:00,
2013-07-01 01:21:00,59.1,50.5,30.07,NE,54,0.0,0.0,73,0.00,CLR,,0.00,WeatherDisplay:10.37,2013-07-01 06:21:00,
2013-07-01 01:26:00,58.9,50.6,30.07,NE,54,0.0,0.0,74,0.00,CLR,,0.00,WeatherDisplay:10.37,2013-07-01 06:26:00,
2013-07-01 01:31:00,58.9,50.6,30.07,NE,54,0.0,0.0,74,0.00,CLR,,0.00,WeatherDisplay:10.37,2013-07-01 06:31:00,
2013-07-01 01:36:00,58.9,50.6,30.07,NE,54,0.0,0.0,74,0.00,CLR,,0.00,WeatherDisplay:10.37,2013-07-01 06:36:00,
2013-07-01 01:41:00,58.9,50.6,30.07,NE,54,0.0,0.0,74,0.00,CLR,,0.00,WeatherDisplay:10.37,2013-07-01 06:41:00,
2013-07-01 01:46:00,58.9,50.6,30.07,NE,54,0.0,0.0,74,0.00,CLR,,0.00,WeatherDisplay:10.37,2013-07-01 06:46:00,
2013-07-01 01:51:00,59.1,50.8,30.07,NE,54,0.0,0.0,74,0.00,CLR,,0.00,WeatherDisplay:10.37,2013-07-01 06:51:00,
2013-07-01 01:56:00,59.3,50.6,30.07,NE,54,0.0,0.0,73,0.00,CLR,,0.00,WeatherDisplay:10.37,2013-07-01 06:56:00,
2013-07-01 02:01:00,59.5,50.5,30.07,NNE,17,0.2,1.2,72,0.00,CLR,,0.00,WeatherDisplay:10.37,2013-07-01 07:01:00,
2013-07-01 02:06:00,59.6,50.2,30.07,NW,315,0.0,0.0,71,0.00,CLR,,0.00,WeatherDisplay:10.37,2013-07-01 07:06:00,
2013-07-01 02:11:00,59.8,50.0,30.07,NE,44,0.7,1.3,70,0.00,CLR,,0.00,WeatherDisplay:10.37,2013-07-01 07:11:00,
2013-07-01 02:16:00,60.0,49.4,30.07,NE,38,0.0,0.0,68,0.00,CLR,,0.00,WeatherDisplay:10.37,2013-07-01 07:16:00,
2013-07-01 02:21:00,60.2,49.2,30.07,NE,38,0.0,0.0,67,0.00,CLR,,0.00,WeatherDisplay:10.37,2013-07-01 07:21:00,
2013-07-01 02:26:00,60.6,49.2,30.07,NE,38,0.0,0.0,66,0.00,CLR,,0.00,WeatherDisplay:10.37,2013-07-01 07:26:00,
2013-07-01 02:31:00,60.7,48.9,30.07,NNW,345,0.6,1.2,65,0.00,CLR,,0.00,WeatherDisplay:10.37,2013-07-01 07:31:00,
2013-07-01 02:36:00,61.0,48.7,30.07,North,7,0.8,2.6,64,0.00,CLR,,0.00,WeatherDisplay:10.37,2013-07-01 07:36:00,
2013-07-01 02:41:00,61.2,48.5,30.07,ENE,76,0.0,0.0,63,0.00,CLR,,0.00,WeatherDisplay:10.37,2013-07-01 07:41:00,
2013-07-01 02:46:00,61.3,48.6,30.07,NE,34,0.0,0.0,63,0.00,CLR,,0.00,WeatherDisplay:10.37,2013-07-01 07:46:00,
2013-07-01 02:51:00,61.4,48.7,30.07,North,3,0.2,0.4,63,0.00,CLR,,0.00,WeatherDisplay:10.37,2013-07-01 07:51:00,
2013-07-01 02:56:00,61.1,48.4,30.07,NE,34,0.0,0.0,63,0.00,CLR,,0.00,WeatherDisplay:10.37,2013-07-01 07:56:00,
2013-07-01 03:01:00,61.1,48.0,30.07,NNE,30,0.8,3.5,62,0.00,CLR,,0.00,WeatherDisplay:10.37,2013-07-01 08:01:00,
2013-07-01 03:06:00,61.0,48.3,30.07,WNW,302,0.0,1.2,63,0.00,CLR,,0.00,WeatherDisplay:10.37,2013-07-01 08:06:00,
2013-07-01 03:11:00,61.1,48.4,30.07,NW,307,0.1,2.3,63,0.00,CLR,,0.00,WeatherDisplay:10.37,2013-07-01 08:11:00,
2013-07-01 03:16:00,61.1,48.4,30.07,NNW,336,0.0,1.2,63,0.00,CLR,,0.00,WeatherDisplay:10.37,2013-07-01 08:16:00,
2013-07-01 03:21:00,60.8,48.5,30.07,NW,304,1.3,3.5,64,0.00,CLR,,0.00,WeatherDisplay:10.37,2013-07-01 08:21:00,
2013-07-01 03:26:00,60.8,48.5,30.07,North,10,0.2,1.2,64,0.00,CLR,,0.00,WeatherDisplay:10.37,2013-07-01 08:26:00,
2013-07-01 03:31:00,60.5,48.7,30.07,NNW,343,1.7,3.5,65,0.00,CLR,,0.00,WeatherDisplay:10.37,2013-07-01 08:31:00,
2013-07-01 03:36:00,60.5,49.1,30.08,NNE,28,1.0,2.2,66,0.00,CLR,,0.00,WeatherDisplay:10.37,2013-07-01 08:36:00,
2013-07-01 03:41:00,60.2,48.8,30.07,NNW,346,0.5,1.2,66,0.00,CLR,,0.00,WeatherDisplay:10.37,2013-07-01 08:41:00,
2013-07-01 03:46:00,60.1,49.1,30.08,WNW,301,0.9,1.2,67,0.00,CLR,,0.00,WeatherDisplay:10.37,2013-07-01 08:46:00,
2013-07-01 03:51:00,60.0,49.0,30.08,NNW,328,1.3,5.8,67,0.00,CLR,,0.00,WeatherDisplay:10.37,2013-07-01 08:51:00,
2013-07-01 03:56:00,60.0,49.0,30.08,North,350,1.4,3.9,67,0.00,CLR,,0.00,WeatherDisplay:10.37,2013-07-01 08:56:00,
2013-07-01 04:01:00,60.2,49.2,30.08,NNE,12,1.8,3.5,67,0.00,CLR,,0.00,WeatherDisplay:10.37,2013-07-01 09:01:00,
2013-07-01 04:06:00,60.0,49.4,30.08,North,352,1.6,3.5,68,0.00,CLR,,0.00,WeatherDisplay:10.37,2013-07-01 09:06:00,
2013-07-01 04:11:00,60.1,49.5,30.08,NNW,332,0.7,1.9,68,0.00,CLR,,0.00,WeatherDisplay:10.37,2013-07-01 09:11:00,
2013-07-01 04:16:00,60.0,49.4,30.08,ENE,78,0.3,0.0,68,0.00,CLR,,0.00,WeatherDisplay:10.37,2013-07-01 09:16:00,
2013-07-01 04:21:00,59.9,49.7,30.08,NW,325,1.9,4.7,69,0.00,CLR,,0.00,WeatherDisplay:10.37,2013-07-01 09:21:00,
2013-07-01 04:26:00,59.8,49.6,30.08,North,360,2.1,4.6,69,0.00,CLR,,0.00,WeatherDisplay:10.37,2013-07-01 09:26:00,
2013-07-01 04:31:00,59.7,49.9,30.09,West,263,0.5,3.5,70,0.00,CLR,,0.00,WeatherDisplay:10.37,2013-07-01 09:31:00,
2013-07-01 04:36:00,59.5,50.1,30.09,NW,316,2.4,4.6,71,0.00,CLR,,0.00,WeatherDisplay:10.37,2013-07-01 09:36:00,
2013-07-01 04:41:00,59.5,50.1,30.09,ENE,60,1.7,4.6,71,0.00,CLR,,0.00,WeatherDisplay:10.37,2013-07-01 09:41:00,
2013-07-01 04:46:00,59.4,50.4,30.09,ENE,60,1.6,2.3,72,0.00,CLR,,0.00,WeatherDisplay:10.37,2013-07-01 09:46:00,
2013-07-01 04:51:00,59.5,50.5,30.09,North,4,1.4,4.6,72,0.00,CLR,,0.00,WeatherDisplay:10.37,2013-07-01 09:51:00,
2013-07-01 04:56:00,59.4,50.4,30.09,ESE,105,0.1,1.2,72,0.00,CLR,,0.00,WeatherDisplay:10.37,2013-07-01 09:56:00,
2013-07-01 05:01:00,59.5,50.5,30.09,ENE,71,0.5,2.3,72,0.00,CLR,,0.00,WeatherDisplay:10.37,2013-07-01 10:01:00,
2013-07-01 05:06:00,59.4,50.4,30.09,ENE,78,0.4,1.1,72,0.00,CLR,,0.00,WeatherDisplay:10.37,2013-07-01 10:06:00,
2013-07-01 05:11:00,59.5,50.5,30.09,North,2,1.8,3.4,72,0.00,CLR,,0.00,WeatherDisplay:10.37,2013-07-01 10:11:00,
2013-07-01 05:16:00,59.5,50.5,30.10,NNW,346,1.5,3.5,72,0.00,CLR,,0.00,WeatherDisplay:10.37,2013-07-01 10:16:00,
2013-07-01 05:21:00,59.4,50.4,30.10,NE,45,0.0,0.0,72,0.00,CLR,,0.00,WeatherDisplay:10.37,2013-07-01 10:21:00,
2013-07-01 05:26:00,59.4,50.7,30.10,NE,40,0.5,1.2,73,0.00,CLR,,0.00,WeatherDisplay:10.37,2013-07-01 10:26:00,
2013-07-01 05:31:00,59.2,50.5,30.10,ENE,76,2.1,3.5,73,0.00,CLR,,0.00,WeatherDisplay:10.37,2013-07-01 10:31:00,
2013-07-01 05:36:00,59.2,50.5,30.10,North,355,1.0,2.2,73,0.00,CLR,,0.00,WeatherDisplay:10.37,2013-07-01 10:36:00,
2013-07-01 05:41:00,59.2,50.2,30.10,ENE,62,1.8,3.5,72,0.00,CLR,,0.00,WeatherDisplay:10.37,2013-07-01 10:41:00,
2013-07-01 05:46:00,59.6,49.8,30.10,ENE,68,1.6,5.8,70,0.00,CLR,,0.00,WeatherDisplay:10.37,2013-07-01 10:46:00,
2013-07-01 05:51:00,59.8,49.2,30.10,NNE,27,3.1,4.6,68,0.00,CLR,,0.00,WeatherDisplay:10.37,2013-07-01 10:51:00,
2013-07-01 05:56:00,60.1,49.5,30.10,ENE,68,0.8,2.3,68,0.00,CLR,,0.00,WeatherDisplay:10.37,2013-07-01 10:56:00,
2013-07-01 06:01:00,60.2,48.8,30.10,ENE,76,2.9,6.9,66,0.00,CLR,,0.00,WeatherDisplay:10.37,2013-07-01 11:01:00,
2013-07-01 06:06:00,60.5,49.1,30.10,East,79,2.3,5.0,66,0.00,CLR,,0.00,WeatherDisplay:10.37,2013-07-01 11:06:00,
2013-07-01 06:11:00,60.6,49.2,30.10,NNE,20,2.1,6.9,66,0.00,CLR,,0.00,WeatherDisplay:10.37,2013-07-01 11:11:00,
2013-07-01 06:16:00,60.7,49.3,30.10,NE,55,2.6,3.5,66,0.00,CLR,,0.00,WeatherDisplay:10.37,2013-07-01 11:16:00,
2013-07-01 06:21:00,60.7,49.3,30.10,ENE,64,1.8,3.5,66,0.00,CLR,,0.00,WeatherDisplay:10.37,2013-07-01 11:21:00,
2013-07-01 06:26:00,60.7,49.3,30.10,East,92,2.7,6.9,66,0.00,CLR,,0.00,WeatherDisplay:10.37,2013-07-01 11:26:00,
2013-07-01 06:31:00,60.7,49.7,30.11,NE,41,2.5,3.3,67,0.00,CLR,,0.00,WeatherDisplay:10.37,2013-07-01 11:31:00,
2013-07-01 06:36:00,60.9,49.5,30.11,NE,54,3.9,6.9,66,0.00,CLR,,0.00,WeatherDisplay:10.37,2013-07-01 11:36:00,
2013-07-01 06:41:00,61.1,49.7,30.11,North,357,2.0,5.8,66,0.00,CLR,,0.00,WeatherDisplay:10.37,2013-07-01 11:41:00,
2013-07-01 06:46:00,61.7,49.8,30.11,North,9,3.8,7.7,65,0.00,CLR,,0.00,WeatherDisplay:10.37,2013-07-01 11:46:00,
2013-07-01 06:51:00,61.7,49.8,30.11,NE,44,4.0,9.2,65,0.00,CLR,,0.00,WeatherDisplay:10.37,2013-07-01 11:51:00,
2013-07-01 06:56:00,61.9,50.0,30.11,NNE,20,1.7,5.8,65,0.00,CLR,,0.00,WeatherDisplay:10.37,2013-07-01 11:56:00,
2013-07-01 07:01:00,62.0,50.5,30.11,NNE,20,1.3,5.8,66,0.00,CLR,,0.00,WeatherDisplay:10.37,2013-07-01 12:01:00,
2013-07-01 07:06:00,61.7,50.2,30.11,ENE,72,5.2,8.1,66,0.00,CLR,,0.00,WeatherDisplay:10.37,2013-07-01 12:06:00,
2013-07-01 07:11:00,61.7,50.2,30.11,NE,54,2.9,8.1,66,0.00,CLR,,0.00,WeatherDisplay:10.37,2013-07-01 12:11:00,
2013-07-01 07:16:00,61.7,50.6,30.11,NNE,21,2.9,5.8,67,0.00,CLR,,0.00,WeatherDisplay:10.37,2013-07-01 12:16:00,
2013-07-01 07:21:00,61.9,50.8,30.11,ENE,62,1.8,6.9,67,0.00,CLR,,0.00,WeatherDisplay:10.37,2013-07-01 12:21:00,
2013-07-01 07:26:00,62.0,50.9,30.11,NE,48,0.7,3.5,67,0.00,CLR,,0.00,WeatherDisplay:10.37,2013-07-01 12:26:00,
2013-07-01 07:31:00,62.1,51.0,30.11,ENE,57,3.2,7.7,67,0.00,CLR,,0.00,WeatherDisplay:10.37,2013-07-01 12:31:00,
2013-07-01 07:36:00,62.3,51.2,30.12,NNE,33,3.3,6.9,67,0.00,CLR,,0.00,WeatherDisplay:10.37,2013-07-01 12:36:00,
2013-07-01 07:41:00,62.2,51.1,30.12,ENE,58,3.3,6.0,67,0.00,CLR,,0.00,WeatherDisplay:10.37,2013-07-01 12:41:00,
2013-07-01 07:46:00,62.3,50.8,30.12,NE,50,4.8,6.5,66,0.00,CLR,,0.00,WeatherDisplay:10.37,2013-07-01 12:46:00,
2013-07-01 07:51:00,62.4,51.3,30.12,SE,132,5.5,8.8,67,0.00,CLR,,0.00,WeatherDisplay:10.37,2013-07-01 12:51:00,
2013-07-01 07:56:00,62.4,51.3,30.12,East,89,3.3,4.7,67,0.00,CLR,,0.00,WeatherDisplay:10.37,2013-07-01 12:56:00,
2013-07-01 08:01:00,62.7,52.0,30.12,NE,54,3.1,6.9,68,0.00,CLR,,0.00,WeatherDisplay:10.37,2013-07-01 13:01:00,
2013-07-01 08:06:00,62.7,52.0,30.13,ENE,62,7.6,8.8,68,0.00,CLR,,0.00,WeatherDisplay:10.37,2013-07-01 13:06:00,
2013-07-01 08:11:00,62.8,52.1,30.13,East,96,2.1,8.1,68,0.00,CLR,,0.00,WeatherDisplay:10.37,2013-07-01 13:11:00,
2013-07-01 08:16:00,63.0,52.3,30.13,SW,228,5.4,8.1,68,0.00,CLR,,0.00,WeatherDisplay:10.37,2013-07-01 13:16:00,
2013-07-01 08:21:00,63.4,52.2,30.13,NE,55,4.1,6.9,67,0.00,CLR,,0.00,WeatherDisplay:10.37,2013-07-01 13:21:00,
2013-07-01 08:26:00,63.3,51.7,30.13,East,85,6.1,10.4,66,0.00,CLR,,0.00,WeatherDisplay:10.37,2013-07-01 13:26:00,
2013-07-01 08:31:00,63.4,51.4,30.13,NE,47,7.3,9.2,65,0.00,CLR,,0.00,WeatherDisplay:10.37,2013-07-01 13:31:00,
2013-07-01 08:36:00,63.8,51.8,30.13,ENE,68,7.5,11.5,65,0.00,CLR,,0.00,WeatherDisplay:10.37,2013-07-01 13:36:00,
2013-07-01 08:41:00,64.4,52.4,30.13,NE,54,4.8,8.1,65,0.00,CLR,,0.00,WeatherDisplay:10.37,2013-07-01 13:41:00,
2013-07-01 08:46:00,64.8,52.3,30.13,NE,36,7.2,10.4,64,0.00,CLR,,0.00,WeatherDisplay:10.37,2013-07-01 13:46:00,
2013-07-01 08:51:00,64.7,51.8,30.14,NE,44,7.9,8.1,63,0.00,CLR,,0.00,WeatherDisplay:10.37,2013-07-01 13:51:00,
2013-07-01 08:56:00,65.1,52.2,30.13,NE,37,7.3,10.7,63,0.00,CLR,,0.00,WeatherDisplay:10.37,2013-07-01 13:56:00,
2013-07-01 09:01:00,65.4,52.5,30.14,East,89,3.8,9.4,63,0.00,CLR,,0.00,WeatherDisplay:10.37,2013-07-01 14:01:00,
2013-07-01 09:06:00,66.0,53.0,30.14,ENE,69,5.2,7.1,63,0.00,CLR,,0.00,WeatherDisplay:10.37,2013-07-01 14:06:00,
2013-07-01 09:11:00,66.4,53.0,30.14,NE,54,4.3,8.1,62,0.00,CLR,,0.00,WeatherDisplay:10.37,2013-07-01 14:11:00,
2013-07-01 09:16:00,66.2,52.3,30.14,NNE,20,8.5,10.4,61,0.00,CLR,,0.00,WeatherDisplay:10.37,2013-07-01 14:16:00,
2013-07-01 09:21:00,66.5,52.6,30.14,East,91,6.8,10.4,61,0.00,CLR,,0.00,WeatherDisplay:10.37,2013-07-01 14:21:00,
2013-07-01 09:26:00,67.2,52.8,30.14,East,95,6.2,10.4,60,0.00,CLR,,0.00,WeatherDisplay:10.37,2013-07-01 14:26:00,
2013-07-01 09:31:00,67.8,53.9,30.14,NNE,30,1.4,4.9,61,0.00,CLR,,0.00,WeatherDisplay:10.37,2013-07-01 14:31:00,
2013-07-01 09:36:00,68.7,54.7,30.14,ENE,69,2.2,5.0,61,0.00,CLR,,0.00,WeatherDisplay:10.37,2013-07-01 14:36:00,
2013-07-01 09:41:00,69.1,53.7,30.14,NE,50,3.5,4.6,58,0.00,CLR,,0.00,WeatherDisplay:10.37,2013-07-01 14:41:00,
2013-07-01 09:46:00,68.7,53.8,30.14,NNE,26,6.6,9.2,59,0.00,CLR,,0.00,WeatherDisplay:10.37,2013-07-01 14:46:00,
2013-07-01 09:51:00,68.8,53.4,30.14,ENE,75,5.2,9.2,58,0.00,CLR,,0.00,WeatherDisplay:10.37,2013-07-01 14:51:00,
2013-07-01 09:56:00,69.0,54.1,30.14,East,86,4.3,8.1,59,0.00,CLR,,0.00,WeatherDisplay:10.37,2013-07-01 14:56:00,
2013-07-01 10:01:00,69.6,53.2,30.14,ENE,76,1.9,6.7,56,0.00,CLR,,0.00,WeatherDisplay:10.37,2013-07-01 15:01:00,
2013-07-01 10:06:00,70.5,53.1,30.14,SE,127,2.2,9.2,54,0.00,CLR,,0.00,WeatherDisplay:10.37,2013-07-01 15:06:00,
2013-07-01 10:11:00,70.4,52.4,30.14,NE,45,5.0,9.2,53,0.00,CLR,,0.00,WeatherDisplay:10.37,2013-07-01 15:11:00,
2013-07-01 10:16:00,71.1,53.6,30.14,ENE,67,2.4,5.4,54,0.00,CLR,,0.00,WeatherDisplay:10.37,2013-07-01 15:16:00,
2013-07-01 10:21:00,71.3,53.8,30.14,NE,45,5.0,8.1,54,0.00,CLR,,0.00,WeatherDisplay:10.37,2013-07-01 15:21:00,
2013-07-01 10:26:00,71.5,54.0,30.14,NE,36,4.0,7.1,54,0.00,CLR,,0.00,WeatherDisplay:10.37,2013-07-01 15:26:00,
2013-07-01 10:31:00,71.7,53.7,30.14,North,350,2.4,5.8,53,0.00,CLR,,0.00,WeatherDisplay:10.37,2013-07-01 15:31:00,
2013-07-01 10:36:00,71.5,52.9,30.14,ESE,106,6.3,6.9,52,0.00,CLR,,0.00,WeatherDisplay:10.37,2013-07-01 15:36:00,
2013-07-01 10:41:00,71.2,52.1,30.14,NE,40,6.4,11.5,51,0.00,CLR,,0.00,WeatherDisplay:10.37,2013-07-01 15:41:00,
2013-07-01 10:46:00,71.4,52.3,30.14,NNE,31,8.0,11.4,51,0.00,CLR,,0.00,WeatherDisplay:10.37,2013-07-01 15:46:00,
2013-07-01 10:51:00,71.4,52.9,30.14,ENE,60,6.2,9.2,52,0.00,CLR,,0.00,WeatherDisplay:10.37,2013-07-01 15:51:00,
2013-07-01 10:56:00,71.8,51.6,30.14,NNE,24,6.9,9.8,49,0.00,CLR,,0.00,WeatherDisplay:10.37,2013-07-01 15:56:00,
2013-07-01 11:01:00,71.8,51.6,30.14,WNW,300,5.5,11.5,49,0.00,CLR,,0.00,WeatherDisplay:10.37,2013-07-01 16:01:00,
2013-07-01 11:06:00,72.3,52.1,30.14,SE,134,6.0,9.2,49,0.00,CLR,,0.00,WeatherDisplay:10.37,2013-07-01 16:06:00,
2013-07-01 11:11:00,72.8,52.5,30.14,NE,47,5.5,9.2,49,0.00,CLR,,0.00,WeatherDisplay:10.37,2013-07-01 16:11:00,
2013-07-01 11:16:00,72.3,50.4,30.14,East,88,9.1,11.6,46,0.00,CLR,,0.00,WeatherDisplay:10.37,2013-07-01 16:16:00,
2013-07-01 11:21:00,72.2,50.8,30.14,NW,324,6.7,11.5,47,0.00,CLR,,0.00,WeatherDisplay:10.37,2013-07-01 16:21:00,
2013-07-01 11:26:00,72.6,51.2,30.14,NNE,28,8.0,10.4,47,0.00,CLR,,0.00,WeatherDisplay:10.37,2013-07-01 16:26:00,
2013-07-01 11:31:00,73.0,52.7,30.14,East,79,2.7,9.2,49,0.00,CLR,,0.00,WeatherDisplay:10.37,2013-07-01 16:31:00,
2013-07-01 11:37:00,73.1,52.8,30.14,SE,129,7.2,13.8,49,0.00,CLR,,0.00,WeatherDisplay:10.37,2013-07-01 16:37:00,
2013-07-01 11:42:00,73.3,51.3,30.14,ENE,72,7.4,13.8,46,0.00,CLR,,0.00,WeatherDisplay:10.37,2013-07-01 16:42:00,
2013-07-01 11:47:00,73.1,52.2,30.13,NE,55,5.4,15.0,48,0.00,CLR,,0.00,WeatherDisplay:10.37,2013-07-01 16:47:00,
2013-07-01 11:52:00,73.4,51.4,30.13,North,4,4.7,6.9,46,0.00,CLR,,0.00,WeatherDisplay:10.37,2013-07-01 16:52:00,
2013-07-01 11:57:00,73.6,52.7,30.13,NE,51,4.9,9.2,48,0.00,CLR,,0.00,WeatherDisplay:10.37,2013-07-01 16:57:00,
2013-07-01 12:02:00,73.6,52.1,30.13,NE,41,3.6,8.1,47,0.00,CLR,,0.00,WeatherDisplay:10.37,2013-07-01 17:02:00,
2013-07-01 12:07:00,74.0,51.9,30.13,NNE,33,8.5,15.0,46,0.00,CLR,,0.00,WeatherDisplay:10.37,2013-07-01 17:07:00,
2013-07-01 12:12:00,73.8,52.3,30.13,NE,48,6.7,10.4,47,0.00,CLR,,0.00,WeatherDisplay:10.37,2013-07-01 17:12:00,
2013-07-01 12:17:00,74.2,53.8,30.13,NE,50,0.9,3.5,49,0.00,CLR,,0.00,WeatherDisplay:10.37,2013-07-01 17:17:00,
2013-07-01 12:22:00,74.7,52.5,30.13,ENE,57,5.0,13.0,46,0.00,CLR,,0.00,WeatherDisplay:10.37,2013-07-01 17:22:00,
2013-07-01 12:27:00,74.1,53.2,30.13,ENE,69,6.1,9.2,48,0.00,CLR,,0.00,WeatherDisplay:10.37,2013-07-01 17:27:00,
2013-07-01 12:32:00,74.9,53.9,30.13,East,79,4.4,4.6,48,0.00,CLR,,0.00,WeatherDisplay:10.37,2013-07-01 17:32:00,
2013-07-01 12:37:00,74.7,51.9,30.13,East,85,5.6,8.9,45,0.00,CLR,,0.00,WeatherDisplay:10.37,2013-07-01 17:37:00,
2013-07-01 12:42:00,75.0,54.0,30.13,East,81,3.8,11.3,48,0.00,CLR,,0.00,WeatherDisplay:10.37,2013-07-01 17:42:00,
2013-07-01 12:47:00,75.0,52.8,30.13,NE,48,6.1,9.2,46,0.00,CLR,,0.00,WeatherDisplay:10.37,2013-07-01 17:47:00,
2013-07-01 12:52:00,75.7,53.4,30.12,East,81,5.0,8.1,46,0.00,CLR,,0.00,WeatherDisplay:10.37,2013-07-01 17:52:00,
2013-07-01 12:57:00,75.8,51.7,30.13,ENE,74,5.8,9.2,43,0.00,CLR,,0.00,WeatherDisplay:10.37,2013-07-01 17:57:00,
2013-07-01 13:02:00,74.7,50.7,30.13,NW,322,7.4,13.8,43,0.00,FEW,,0.00,WeatherDisplay:10.37,2013-07-01 18:02:00,
2013-07-01 13:07:00,75.3,53.1,30.13,NNE,33,2.9,11.1,46,0.00,FEW,,0.00,WeatherDisplay:10.37,2013-07-01 18:07:00,
2013-07-01 13:12:00,75.0,52.8,30.12,ENE,58,8.0,16.1,46,0.00,FEW,,0.00,WeatherDisplay:10.37,2013-07-01 18:12:00,
2013-07-01 13:17:00,75.8,51.7,30.12,NNE,24,5.9,13.8,43,0.00,FEW,,0.00,WeatherDisplay:10.37,2013-07-01 18:17:00,
2013-07-01 13:22:00,75.4,52.0,30.12,NE,45,4.2,11.5,44,0.00,FEW,,0.00,WeatherDisplay:10.37,2013-07-01 18:22:00,
2013-07-01 13:27:00,75.5,50.8,30.12,NE,52,9.7,18.0,42,0.00,FEW,,0.00,WeatherDisplay:10.37,2013-07-01 18:27:00,
2013-07-01 13:32:00,75.7,50.3,30.12,ENE,62,8.1,12.7,41,0.00,FEW,,0.00,WeatherDisplay:10.37,2013-07-01 18:32:00,
2013-07-01 13:37:00,75.4,49.4,30.12,SSE,160,10.2,19.6,40,0.00,FEW,,0.00,WeatherDisplay:10.37,2013-07-01 18:37:00,
2013-07-01 13:42:00,75.3,48.6,30.12,ENE,71,10.4,18.4,39,0.00,FEW,,0.00,WeatherDisplay:10.37,2013-07-01 18:42:00,
2013-07-01 13:47:00,75.8,49.1,30.12,NE,41,7.9,15.0,39,0.00,FEW,,0.00,WeatherDisplay:10.37,2013-07-01 18:47:00,
2013-07-01 13:52:00,76.4,51.0,30.12,ESE,108,6.2,15.0,41,0.00,FEW,,0.00,WeatherDisplay:10.37,2013-07-01 18:52:00,
2013-07-01 13:57:00,76.3,50.9,30.12,NE,38,7.8,14.2,41,0.00,FEW,,0.00,WeatherDisplay:10.37,2013-07-01 18:57:00,
2013-07-01 14:02:00,76.2,48.7,30.12,North,9,10.5,15.9,38,0.00,FEW,,0.00,WeatherDisplay:10.37,2013-07-01 19:02:00,
2013-07-01 14:07:00,75.9,48.5,30.12,ENE,67,6.8,15.0,38,0.00,FEW,,0.00,WeatherDisplay:10.37,2013-07-01 19:07:00,
2013-07-01 14:12:00,75.8,46.9,30.12,NNE,33,11.9,18.4,36,0.00,FEW,,0.00,WeatherDisplay:10.37,2013-07-01 19:12:00,
2013-07-01 14:17:00,75.5,48.1,30.12,ENE,65,8.3,13.8,38,0.00,FEW,,0.00,WeatherDisplay:10.37,2013-07-01 19:17:00,
2013-07-01 14:22:00,76.0,49.2,30.12,North,2,9.8,11.5,39,0.00,FEW,,0.00,WeatherDisplay:10.37,2013-07-01 19:22:00,
2013-07-01 14:27:00,76.4,48.2,30.12,NE,40,9.0,15.0,37,0.00,FEW,,0.00,WeatherDisplay:10.37,2013-07-01 19:27:00,
2013-07-01 14:32:00,75.9,47.0,30.12,NNE,20,9.2,15.0,36,0.00,FEW,,0.00,WeatherDisplay:10.37,2013-07-01 19:32:00,
2013-07-01 14:37:00,76.3,49.5,30.12,East,84,4.3,9.2,39,0.00,FEW,,0.00,WeatherDisplay:10.37,2013-07-01 19:37:00,
2013-07-01 14:42:00,76.4,48.2,30.12,ENE,62,7.2,13.8,37,0.00,FEW,,0.00,WeatherDisplay:10.37,2013-07-01 19:42:00,
2013-07-01 14:47:00,76.9,48.6,30.12,East,85,6.8,10.4,37,0.00,FEW,,0.00,WeatherDisplay:10.37,2013-07-01 19:47:00,
2013-07-01 14:52:00,77.0,48.0,30.12,NE,52,6.9,13.1,36,0.00,FEW,,0.00,WeatherDisplay:10.37,2013-07-01 19:52:00,
2013-07-01 14:57:00,77.2,50.3,30.12,NNE,23,6.9,15.8,39,0.00,FEW,,0.00,WeatherDisplay:10.37,2013-07-01 19:57:00,
2013-07-01 15:02:00,76.8,50.0,30.12,ENE,76,7.4,16.1,39,0.00,FEW,,0.00,WeatherDisplay:10.37,2013-07-01 20:02:00,
2013-07-01 15:07:00,76.8,50.0,30.12,NNE,20,5.4,12.7,39,0.00,FEW,,0.00,WeatherDisplay:10.37,2013-07-01 20:07:00,
2013-07-01 15:12:00,76.9,50.1,30.12,NE,50,4.2,6.9,39,0.00,FEW,,0.00,WeatherDisplay:10.37,2013-07-01 20:12:00,
2013-07-01 15:17:00,77.1,48.8,30.12,ENE,62,7.2,10.4,37,0.00,FEW,,0.00,WeatherDisplay:10.37,2013-07-01 20:17:00,
2013-07-01 15:22:00,77.1,49.5,30.12,ENE,67,3.8,9.2,38,0.00,FEW,,0.00,WeatherDisplay:10.37,2013-07-01 20:22:00,
2013-07-01 15:27:00,76.8,49.3,30.12,NE,51,7.9,16.1,38,0.00,FEW,,0.00,WeatherDisplay:10.37,2013-07-01 20:27:00,
2013-07-01 15:32:00,76.5,50.4,30.12,East,88,7.6,10.4,40,0.00,FEW,,0.00,WeatherDisplay:10.37,2013-07-01 20:32:00,
2013-07-01 15:37:00,76.5,49.0,30.12,ESE,116,8.9,16.1,38,0.00,FEW,,0.00,WeatherDisplay:10.37,2013-07-01 20:37:00,
2013-07-01 15:42:00,77.0,52.1,30.12,NE,37,4.2,6.9,42,0.00,FEW,,0.00,WeatherDisplay:10.37,2013-07-01 20:42:00,
2013-07-01 15:47:00,76.4,48.9,30.12,ESE,102,8.8,19.6,38,0.00,FEW,,0.00,WeatherDisplay:10.37,2013-07-01 20:47:00,
2013-07-01 15:52:00,76.1,49.3,30.12,ENE,71,13.2,23.0,39,0.00,FEW,,0.00,WeatherDisplay:10.37,2013-07-01 20:52:00,
2013-07-01 15:57:00,76.2,49.4,30.12,ENE,64,8.8,15.2,39,0.00,FEW,,0.00,WeatherDisplay:10.37,2013-07-01 20:57:00,
2013-07-01 16:02:00,76.1,50.7,30.12,ENE,64,6.4,13.8,41,0.00,FEW,,0.00,WeatherDisplay:10.37,2013-07-01 21:02:00,
2013-07-01 16:07:00,76.3,51.5,30.12,NE,50,6.3,9.9,42,0.00,FEW,,0.00,WeatherDisplay:10.37,2013-07-01 21:07:00,
2013-07-01 16:12:00,76.8,51.3,30.12,NE,41,5.8,12.4,41,0.00,FEW,,0.00,WeatherDisplay:10.37,2013-07-01 21:12:00,
2013-07-01 16:17:00,76.4,51.0,30.12,NE,38,8.3,15.0,41,0.00,FEW,,0.00,WeatherDisplay:10.37,2013-07-01 21:17:00,
2013-07-01 16:22:00,75.7,49.7,30.12,ENE,57,8.2,12.7,40,0.00,FEW,,0.00,WeatherDisplay:10.37,2013-07-01 21:22:00,
2013-07-01 16:27:00,75.9,51.8,30.12,ENE,58,1.5,4.6,43,0.00,FEW,,0.00,WeatherDisplay:10.37,2013-07-01 21:27:00,
2013-07-01 16:32:00,76.1,50.7,30.12,NNE,31,5.4,11.5,41,0.00,FEW,,0.00,WeatherDisplay:10.37,2013-07-01 21:32:00,
2013-07-01 16:37:00,75.9,51.2,30.13,ENE,57,4.5,9.2,42,0.00,FEW,,0.00,WeatherDisplay:10.37,2013-07-01 21:37:00,
2013-07-01 16:42:00,76.7,52.5,30.12,NE,47,5.1,11.5,43,0.00,FEW,,0.00,WeatherDisplay:10.37,2013-07-01 21:42:00,
2013-07-01 16:47:00,76.6,50.5,30.12,NE,48,6.0,10.4,40,0.00,FEW,,0.00,WeatherDisplay:10.37,2013-07-01 21:47:00,
2013-07-01 16:52:00,76.4,51.0,30.12,ENE,58,7.8,11.5,41,0.00,FEW,,0.00,WeatherDisplay:10.37,2013-07-01 21:52:00,
2013-07-01 16:57:00,76.2,49.4,30.12,ENE,65,8.9,11.5,39,0.00,FEW,,0.00,WeatherDisplay:10.37,2013-07-01 21:57:00,
2013-07-01 17:02:00,76.1,50.0,30.12,ENE,68,8.1,11.5,40,0.00,FEW,,0.00,WeatherDisplay:10.37,2013-07-01 22:02:00,
2013-07-01 17:07:00,76.1,50.0,30.12,NE,44,4.6,10.4,40,0.00,FEW,,0.00,WeatherDisplay:10.37,2013-07-01 22:07:00,
2013-07-01 17:12:00,75.9,47.8,30.12,NE,55,5.0,9.2,37,0.00,FEW,,0.00,WeatherDisplay:10.37,2013-07-01 22:12:00,
2013-07-01 17:17:00,75.6,49.6,30.12,East,92,7.5,13.8,40,0.00,FEW,,0.00,WeatherDisplay:10.37,2013-07-01 22:17:00,
2013-07-01 17:22:00,76.0,46.4,30.12,NE,51,9.4,15.0,35,0.00,FEW,,0.00,WeatherDisplay:10.37,2013-07-01 22:22:00,
2013-07-01 17:27:00,76.2,47.3,30.12,East,95,6.1,9.2,36,0.00,FEW,,0.00,WeatherDisplay:10.37,2013-07-01 22:27:00,
2013-07-01 17:32:00,75.7,46.8,30.12,NE,40,7.1,10.9,36,0.00,FEW,,0.00,WeatherDisplay:10.37,2013-07-01 22:32:00,
2013-07-01 17:37:00,76.0,48.6,30.12,NNE,30,4.1,8.1,38,0.00,FEW,,0.00,WeatherDisplay:10.37,2013-07-01 22:37:00,
2013-07-01 17:42:00,76.3,48.8,30.12,NNE,31,6.0,9.2,38,0.00,FEW,,0.00,WeatherDisplay:10.37,2013-07-01 22:42:00,
2013-07-01 17:47:00,76.3,46.6,30.12,East,99,5.5,9.2,35,0.00,FEW,,0.00,WeatherDisplay:10.37,2013-07-01 22:47:00,
2013-07-01 17:52:00,76.2,48.7,30.12,NE,37,6.0,11.5,38,0.00,FEW,,0.00,WeatherDisplay:10.37,2013-07-01 22:52:00,
2013-07-01 17:57:00,76.4,45.9,30.12,SE,130,3.2,6.9,34,0.00,FEW,,0.00,WeatherDisplay:10.37,2013-07-01 22:57:00,
2013-07-01 18:02:00,76.5,46.0,30.11,East,100,3.2,6.9,34,0.00,FEW,,0.00,WeatherDisplay:10.37,2013-07-01 23:02:00,
2013-07-01 18:07:00,76.2,45.8,30.12,ENE,72,7.4,12.7,34,0.00,FEW,,0.00,WeatherDisplay:10.37,2013-07-01 23:07:00,
2013-07-01 18:12:00,76.1,45.7,30.12,SSE,153,4.3,8.1,34,0.00,FEW,,0.00,WeatherDisplay:10.37,2013-07-01 23:12:00,
2013-07-01 18:17:00,75.9,44.7,30.12,ENE,60,7.8,11.5,33,0.00,FEW,,0.00,WeatherDisplay:10.37,2013-07-01 23:17:00,
2013-07-01 18:22:00,76.2,46.5,30.12,NE,54,4.1,6.9,35,0.00,FEW,,0.00,WeatherDisplay:10.37,2013-07-01 23:22:00,
2013-07-01 18:27:00,76.0,46.4,30.11,NE,47,5.3,8.1,35,0.00,FEW,,0.00,WeatherDisplay:10.37,2013-07-01 23:27:00,
2013-07-01 18:32:00,75.8,45.4,30.11,NE,48,8.1,11.5,34,0.00,FEW,,0.00,WeatherDisplay:10.37,2013-07-01 23:32:00,
2013-07-01 18:37:00,75.7,46.8,30.11,NE,40,2.6,4.6,36,0.00,FEW,,0.00,WeatherDisplay:10.37,2013-07-01 23:37:00,
2013-07-01 18:42:00,75.5,45.9,30.11,ENE,58,6.1,10.4,35,0.00,FEW,,0.00,WeatherDisplay:10.37,2013-07-01 23:42:00,
2013-07-01 18:47:00,75.5,45.2,30.11,ENE,60,5.1,8.1,34,0.00,FEW,,0.00,WeatherDisplay:10.37,2013-07-01 23:47:00,
2013-07-01 18:52:00,75.5,46.7,30.11,NE,45,4.2,6.9,36,0.00,FEW,,0.00,WeatherDisplay:10.37,2013-07-01 23:52:00,
2013-07-01 18:57:00,75.2,45.7,30.11,NE,52,5.6,9.2,35,0.00,FEW,,0.00,WeatherDisplay:10.37,2013-07-01 23:57:00,
2013-07-01 19:02:00,75.4,46.6,30.11,NE,50,4.1,6.5,36,0.00,CLR,,0.00,WeatherDisplay:10.37,2013-07-02 00:02:00,
2013-07-01 19:07:00,75.3,46.5,30.11,ENE,62,5.0,8.1,36,0.00,CLR,,0.00,WeatherDisplay:10.37,2013-07-02 00:07:00,
2013-07-01 19:12:00,75.1,46.3,30.11,NE,45,5.3,8.1,36,0.00,CLR,,0.00,WeatherDisplay:10.37,2013-07-02 00:12:00,
2013-07-01 19:17:00,74.8,47.5,30.11,East,95,3.8,6.0,38,0.00,CLR,,0.00,WeatherDisplay:10.37,2013-07-02 00:17:00,
2013-07-01 19:22:00,74.8,46.8,30.11,ENE,78,4.2,5.8,37,0.00,CLR,,0.00,WeatherDisplay:10.37,2013-07-02 00:22:00,
2013-07-01 19:27:00,74.7,47.4,30.11,ENE,62,3.5,5.8,38,0.00,CLR,,0.00,WeatherDisplay:10.37,2013-07-02 00:27:00,
2013-07-01 19:32:00,74.6,47.3,30.11,NE,41,3.5,4.6,38,0.00,CLR,,0.00,WeatherDisplay:10.37,2013-07-02 00:32:00,
2013-07-01 19:37:00,74.5,47.9,30.11,NE,45,1.4,3.9,39,0.00,CLR,,0.00,WeatherDisplay:10.37,2013-07-02 00:37:00,
2013-07-01 19:42:00,74.3,47.7,30.11,NE,45,3.3,4.6,39,0.00,CLR,,0.00,WeatherDisplay:10.37,2013-07-02 00:42:00,
2013-07-01 19:47:00,74.1,47.6,30.11,NE,47,3.5,4.6,39,0.00,CLR,,0.00,WeatherDisplay:10.37,2013-07-02 00:47:00,
2013-07-01 19:52:00,74.0,48.8,30.11,NE,54,2.3,4.6,41,0.00,CLR,,0.00,WeatherDisplay:10.37,2013-07-02 00:52:00,
2013-07-01 19:57:00,73.8,48.6,30.12,NNE,31,1.3,2.3,41,0.00,CLR,,0.00,WeatherDisplay:10.37,2013-07-02 00:57:00,
2013-07-01 20:02:00,73.5,49.0,30.11,NNE,20,0.4,2.3,42,0.00,CLR,,0.00,WeatherDisplay:10.37,2013-07-02 01:02:00,
2013-07-01 20:07:00,73.1,49.3,30.12,NE,34,0.0,0.0,43,0.00,CLR,,0.00,WeatherDisplay:10.37,2013-07-02 01:07:00,
2013-07-01 20:12:00,72.6,49.4,30.12,NE,34,0.0,0.0,44,0.00,CLR,,0.00,WeatherDisplay:10.37,2013-07-02 01:12:00,
2013-07-01 20:17:00,72.3,49.8,30.12,NE,34,0.0,0.0,45,0.00,CLR,,0.00,WeatherDisplay:10.37,2013-07-02 01:17:00,
2013-07-01 20:22:00,72.0,49.5,30.11,NE,34,0.0,0.0,45,0.00,CLR,,0.00,WeatherDisplay:10.37,2013-07-02 01:22:00,
2013-07-01 20:27:00,71.6,49.7,30.11,NE,34,0.0,0.0,46,0.00,CLR,,0.00,WeatherDisplay:10.37,2013-07-02 01:27:00,
2013-07-01 20:32:00,71.3,50.0,30.11,NE,34,0.0,0.0,47,0.00,CLR,,0.00,WeatherDisplay:10.37,2013-07-02 01:32:00,
2013-07-01 20:37:00,70.8,50.1,30.11,NE,34,0.0,0.0,48,0.00,CLR,,0.00,WeatherDisplay:10.37,2013-07-02 01:37:00,
2013-07-01 20:42:00,70.4,50.3,30.11,NE,34,0.0,0.0,49,0.00,CLR,,0.00,WeatherDisplay:10.37,2013-07-02 01:42:00,
2013-07-01 20:47:00,69.8,51.4,30.11,NE,34,0.0,0.0,52,0.00,CLR,,0.00,WeatherDisplay:10.37,2013-07-02 01:47:00,
2013-07-01 20:52:00,69.2,51.3,30.11,NE,34,0.0,0.0,53,0.00,CLR,,0.00,WeatherDisplay:10.37,2013-07-02 01:52:00,
2013-07-01 20:57:00,68.4,50.6,30.11,NE,34,0.0,0.0,53,0.00,CLR,,0.00,WeatherDisplay:10.37,2013-07-02 01:57:00,
2013-07-01 21:02:00,67.8,50.5,30.11,NE,34,0.0,0.0,54,0.00,CLR,,0.00,WeatherDisplay:10.37,2013-07-02 02:02:00,
2013-07-01 21:07:00,67.2,50.5,30.11,NE,34,0.0,0.0,55,0.00,CLR,,0.00,WeatherDisplay:10.37,2013-07-02 02:07:00,
2013-07-01 21:12:00,66.9,50.7,30.11,NE,34,0.0,0.0,56,0.00,CLR,,0.00,WeatherDisplay:10.37,2013-07-02 02:12:00,
2013-07-01 21:17:00,66.4,51.2,30.11,NE,34,0.0,0.0,58,0.00,CLR,,0.00,WeatherDisplay:10.37,2013-07-02 02:17:00,
2013-07-01 21:22:00,66.1,51.8,30.11,NE,34,0.0,0.0,60,0.00,CLR,,0.00,WeatherDisplay:10.37,2013-07-02 02:22:00,
2013-07-01 21:27:00,65.6,51.3,30.11,NE,34,0.0,0.0,60,0.00,CLR,,0.00,WeatherDisplay:10.37,2013-07-02 02:27:00,
2013-07-01 21:32:00,65.3,51.5,30.11,NE,34,0.0,0.0,61,0.00,CLR,,0.00,WeatherDisplay:10.37,2013-07-02 02:32:00,
2013-07-01 21:37:00,65.0,51.7,30.11,NE,34,0.0,0.0,62,0.00,CLR,,0.00,WeatherDisplay:10.37,2013-07-02 02:37:00,
2013-07-01 21:42:00,64.6,51.7,30.11,NE,34,0.0,0.0,63,0.00,CLR,,0.00,WeatherDisplay:10.37,2013-07-02 02:42:00,
2013-07-01 21:47:00,64.3,51.9,30.12,NE,34,0.0,0.0,64,0.00,CLR,,0.00,WeatherDisplay:10.37,2013-07-02 02:47:00,
2013-07-01 21:52:00,64.2,52.2,30.12,NE,34,0.0,0.0,65,0.00,CLR,,0.00,WeatherDisplay:10.37,2013-07-02 02:52:00,
2013-07-01 21:57:00,63.9,51.9,30.12,NE,34,0.0,0.0,65,0.00,CLR,,0.00,WeatherDisplay:10.37,2013-07-02 02:57:00,
2013-07-01 22:02:00,63.6,52.0,30.12,NE,34,0.0,0.0,66,0.00,CLR,,0.00,WeatherDisplay:10.37,2013-07-02 03:02:00,
2013-07-01 22:07:00,63.6,52.4,30.12,NE,34,0.0,0.0,67,0.00,CLR,,0.00,WeatherDisplay:10.37,2013-07-02 03:07:00,
2013-07-01 22:12:00,63.3,52.2,30.12,NE,34,0.0,0.0,67,0.00,CLR,,0.00,WeatherDisplay:10.37,2013-07-02 03:12:00,
2013-07-01 22:17:00,63.2,51.6,30.12,NE,34,0.0,0.0,66,0.00,CLR,,0.00,WeatherDisplay:10.37,2013-07-02 03:17:00,
2013-07-01 22:22:00,63.2,51.6,30.12,NE,34,0.0,0.0,66,0.00,CLR,,0.00,WeatherDisplay:10.37,2013-07-02 03:22:00,
2013-07-01 22:27:00,63.2,51.6,30.12,NE,34,0.0,0.0,66,0.00,CLR,,0.00,WeatherDisplay:10.37,2013-07-02 03:27:00,
2013-07-01 22:32:00,63.2,51.6,30.12,NE,34,0.0,0.0,66,0.00,CLR,,0.00,WeatherDisplay:10.37,2013-07-02 03:32:00,
2013-07-01 22:37:00,62.9,51.8,30.12,NE,34,0.0,0.0,67,0.00,CLR,,0.00,WeatherDisplay:10.37,2013-07-02 03:37:00,
2013-07-01 22:42:00,62.8,51.7,30.12,NE,34,0.0,0.0,67,0.00,CLR,,0.00,WeatherDisplay:10.37,2013-07-02 03:42:00,
2013-07-01 22:47:00,62.6,51.9,30.13,NE,34,0.0,0.0,68,0.00,CLR,,0.00,WeatherDisplay:10.37,2013-07-02 03:47:00,
2013-07-01 22:52:00,62.5,52.6,30.13,NE,34,0.0,0.0,70,0.00,CLR,,0.00,WeatherDisplay:10.37,2013-07-02 03:52:00,
2013-07-01 22:57:00,62.2,52.7,30.13,NE,34,0.0,0.0,71,0.00,CLR,,0.00,WeatherDisplay:10.37,2013-07-02 03:57:00,
2013-07-01 23:01:00,62.0,52.9,30.12,NE,34,0.0,0.0,72,0.00,CLR,,0.00,WeatherDisplay:10.37,2013-07-02 04:01:00,
2013-07-01 23:02:00,61.8,52.7,30.13,NE,34,0.0,0.0,72,0.00,CLR,,0.00,WeatherDisplay:10.37,2013-07-02 04:02:00,
2013-07-01 23:07:00,61.8,52.7,30.13,NE,34,0.0,0.0,72,0.00,CLR,,0.00,WeatherDisplay:10.37,2013-07-02 04:07:00,
2013-07-01 23:12:00,62.0,53.2,30.13,NE,34,0.0,0.0,73,0.00,CLR,,0.00,WeatherDisplay:10.37,2013-07-02 04:12:00,
2013-07-01 23:17:00,62.2,53.1,30.13,NE,34,0.0,0.0,72,0.00,CLR,,0.00,WeatherDisplay:10.37,2013-07-02 04:17:00,
2013-07-01 23:22:00,62.4,53.3,30.13,NE,34,0.0,0.0,72,0.00,CLR,,0.00,WeatherDisplay:10.37,2013-07-02 04:22:00,
2013-07-01 23:27:00,62.1,53.3,30.13,NE,34,0.0,0.0,73,0.00,CLR,,0.00,WeatherDisplay:10.37,2013-07-02 04:27:00,
2013-07-01 23:32:00,61.9,53.5,30.13,NE,34,0.0,0.0,74,0.00,CLR,,0.00,WeatherDisplay:10.37,2013-07-02 04:32:00,
2013-07-01 23:37:00,61.5,53.1,30.13,NE,34,0.0,0.0,74,0.00,CLR,,0.00,WeatherDisplay:10.37,2013-07-02 04:37:00,
2013-07-01 23:42:00,61.4,53.0,30.13,NE,34,0.0,0.0,74,0.00,CLR,,0.00,WeatherDisplay:10.37,2013-07-02 04:42:00,
2013-07-01 23:47:00,61.3,52.6,30.13,NE,34,0.0,0.0,73,0.00,CLR,,0.00,WeatherDisplay:10.37,2013-07-02 04:47:00,
2013-07-01 23:52:00,61.2,53.2,30.13,NE,34,0.0,0.0,75,0.00,CLR,,0.00,WeatherDisplay:10.37,2013-07-02 04:52:00,
2013-07-01 23:57:00,61.2,53.2,30.13,NE,34,0.0,0.0,75,0.00,CLR,,0.00,WeatherDisplay:10.37,2013-07-02 04:57:00,